Location: Chmeln�
(49.6483°N, 14.9871°E)
Time: 23:21:17
(UTC+00:00)

Cosmos 1891 Rocket - Pass Details

Date: 18 September 2020
Orbit: 934 x 1018 km, 82.9° (Epoch: 31 October)

Event Time Altitude Azimuth Distance (km) Brightness Sun altitude
Rises 18:25:27 0° 182° (S) 3,644 7.3 -13.4°
Reaches altitude 10° 18:27:57 10° 181° (S) 2,690 6.6 -13.8°
Maximum altitude 18:34:05 78° 96° (E) 976 4.4 -14.7°
Drops below altitude 10° 18:40:09 10° 12° (NNE) 2,665 6.9 -15.7°
Sets 18:42:38 0° 11° (N) 3,609 7.6 -16.0°
